Theta_e
306 304 303 302 301 299 299 299 298 298 297 297 297 297 296 295 295 294 295 295 294 294 293 293 293 293 292 291 291 292 293 292 292 292 292 292 293 293 293 293 294 294 294
303 302 301 300 300 299 299 297 297 296 297 297 295 295 294 294 294 293 293 293 293 293 293 293 292 292 291 291 291 291 291 291 291 291 291 292 292 292 292 293 293 293 293
301 300 299 299 299 298 297 295 295 295 295 295 295 294 293 293 292 291 291 291 291 291 291 291 290 290 290 290 290 290 290 290 290 290 290 290 290 290 291 291 292 292 292
299 299 299 299 297 296 296 295 294 293 292 291 291 290 290 290 290 290 290 289 289 289 289 289 289 289 289 289 289 289 288 288 288 288 288 289 289 290 290 290 290 291 291
299 299 298 297 296 295 295 293 292 291 290 290 290 289 289 289 289 288 287 286 286 287 287 288 288 288 288 287 286 286 286 286 287 287 288 289 289 290 290 290 290 291 291
298 297 297 296 295 295 293 292 290 290 289 289 289 289 289 288 288 287 286 285 284 285 286 287 287 287 287 286 285 285 284 284 285 286 287 287 288 288 288 289 289 290 290
297 297 296 296 295 293 292 290 290 289 289 289 289 289 288 287 287 286 285 284 283 284 286 286 286 286 286 286 286 286 285 284 284 284 284 285 285 286 287 287 287 288 288
298 297 296 295 294 293 292 290 290 289 289 289 288 288 287 287 286 285 284 283 283 284 284 285 285 285 285 285 284 284 284 284 285 285 284 285 285 286 286 286 286 286 287
297 296 295 295 294 292 291 290 289 289 289 288 288 287 286 286 284 284 282 281 282 282 282 283 283 283 283 283 283 283 284 284 284 285 284 284 284 284 284 284 284 285 286
297 295 294 294 293 292 290 290 289 289 288 288 287 286 284 284 284 282 281 281 280 281 281 282 282 283 283 283 283 283 283 283 283 283 284 284 284 284 284 284 284 284 284
296 295 295 294 293 291 290 290 289 289 288 287 286 285 284 284 283 282 281 280 280 280 281 281 282 284 283 283 283 282 282 281 281 281 282 283 284 284 285 285 286 285 285
296 295 294 293 292 290 290 289 289 288 288 286 285 284 284 283 283 282 281 279 279 280 280 281 282 282 282 282 281 281 280 281 282 282 283 284 285 285 285 286 286 286 286
293 292 293 292 291 290 290 289 288 287 286 285 284 284 283 282 282 281 280 279 279 279 280 280 281 281 281 281 280 280 280 282 282 283 283 284 285 285 286 286 286 286 286
292 292 291 291 290 289 289 288 287 286 285 284 283 282 281 281 280 279 278 278 278 279 279 280 280 280 280 281 281 281 281 281 282 282 283 284 284 285 286 287 286 286 286
290 289 289 290 289 289 288 287 286 285 284 282 281 279 279 278 278 277 277 277 277 278 279 280 279 279 279 280 280 280 280 281 281 281 282 283 284 285 286 287 286 286 287
288 289 289 289 288 287 287 286 285 284 283 282 281 280 278 276 276 276 276 277 278 278 279 278 278 278 278 279 279 279 279 280 280 281 282 282 283 285 286 286 286 286 287
286 286 286 287 286 286 286 285 284 284 283 282 281 280 278 277 275 275 275 277 277 278 277 277 277 277 277 278 278 278 278 279 279 280 280 281 282 283 285 286 286 287 287
285 285 286 286 286 285 284 284 283 283 283 283 281 280 278 277 275 275 275 277 277 277 277 276 276 276 276 277 277 277 278 278 279 279 280 280 281 282 283 284 285 285 286
284 285 285 285 285 284 283 283 283 283 283 282 281 281 278 277 277 276 275 275 275 275 275 275 275 275 275 275 276 276 277 278 278 278 279 279 280 281 282 282 283 284 285
286 285 284 284 284 284 284 283 283 282 282 282 281 280 277 276 277 276 276 275 274 274 274 274 274 274 274 274 275 275 277 277 277 277 278 279 280 280 281 281 282 282 283
285 285 284 283 284 283 283 283 282 282 282 281 281 279 278 276 276 276 275 275 274 273 273 273 274 274 274 274 274 274 275 275 276 276 276 278 279 279 280 280 281 281 281
283 284 284 284 284 283 283 283 282 282 281 281 280 280 278 277 276 276 275 274 274 273 273 273 273 273 273 273 273 273 273 274 274 274 275 277 278 278 279 280 280 280 280
283 283 284 284 284 283 283 283 282 282 281 280 280 279 279 278 276 276 275 274 274 274 273 273 273 273 273 273 273 273 273 273 274 274 274 275 276 276 278 279 279 278 279
283 283 283 283 283 283 283 283 282 282 281 281 280 280 279 278 277 276 275 275 275 274 274 273 273 273 273 273 273 273 273 273 273 273 274 274 275 275 276 277 278 278 278
283 283 283 283 284 283 283 283 283 282 282 281 280 280 279 278 277 276 275 275 274 274 275 274 274 273 273 273 273 273 273 273 273 273 274 274 274 274 275 275 275 277 276
283 283 283 283 283 283 283 282 283 282 282 281 280 280 278 278 277 276 275 275 274 274 274 273 273 273 273 273 273 273 273 273 273 273 273 273 273 273 274 274 274 275 275
Wind_Speed
16 17 19 20 19 19 21 20 20 18 18 16 14 16 20 26 27 27 17 17 15 12 13 15 15 16 17 18 18 19 19 18 23 24 22 21 21 23 24 23 21 22 22
18 20 22 20 20 21 19 20 18 19 18 19 21 25 23 21 17 18 17 14 15 16 17 17 18 19 20 19 19 20 20 21 24 27 25 25 25 24 25 25 24 23 24
21 22 21 21 20 20 18 17 17 18 19 20 21 20 21 22 20 19 19 18 19 19 20 22 22 22 21 20 20 21 21 22 23 26 28 27 27 25 25 25 26 26 26
21 20 21 20 18 16 15 15 18 19 20 20 20 21 20 20 20 19 15 18 19 21 22 22 23 23 23 22 21 21 21 23 24 27 30 29 27 26 26 26 27 26 27
21 21 22 19 17 15 16 17 18 19 20 19 19 19 19 20 20 21 25 23 21 23 23 24 24 24 26 30 30 27 23 23 23 26 29 29 28 26 25 24 26 25 26
22 23 22 18 15 16 16 17 19 19 19 19 19 20 20 20 24 27 30 31 26 24 24 24 24 25 25 24 24 29 26 23 24 25 28 28 26 26 25 24 23 22 24
25 24 21 17 17 16 17 19 19 19 19 20 20 20 20 20 24 29 34 34 26 23 23 24 25 24 24 23 23 20 23 24 25 24 27 27 28 27 25 25 27 27 26
28 25 20 18 19 18 18 18 19 19 20 21 20 19 20 20 25 31 35 31 23 23 23 24 24 25 23 25 23 23 22 22 22 24 27 27 25 24 25 26 27 28 27
29 24 19 19 17 17 18 18 19 20 21 21 19 20 22 22 24 28 31 23 22 23 22 21 22 24 23 23 23 23 23 22 21 24 28 31 33 34 34 32 33 27 26
29 23 20 19 18 15 16 18 19 21 21 21 21 23 24 24 22 28 25 25 24 22 22 22 21 22 24 23 22 23 23 22 23 24 23 23 24 24 26 30 31 31 32
27 20 20 18 14 13 15 18 20 22 22 21 26 25 23 21 24 23 23 22 23 25 24 23 21 22 14 16 22 27 27 25 24 21 20 19 19 18 21 23 26 28 29
20 17 17 12 11 13 16 19 20 21 19 21 22 24 21 22 20 21 24 26 23 25 24 22 23 25 27 26 21 17 19 19 15 14 17 17 17 15 14 16 20 23 25
26 18 11 11 12 15 16 19 20 17 16 20 19 21 21 22 21 21 25 23 23 23 20 23 19 17 22 13 13 13 10 8 12 13 13 13 13 14 14 14 17 21 23
18 16 13 12 13 14 15 17 15 15 17 16 19 19 21 21 20 21 24 24 24 21 21 13 15 15 11 11 12 10 8 9 10 10 12 11 12 11 13 12 12 12 14
15 14 13 12 12 13 13 12 14 14 20 21 18 17 19 20 20 23 23 24 21 20 13 13 13 13 12 11 11 10 9 10 9 9 9 10 10 9 11 8 9 8 9
15 11 11 12 11 12 10 11 15 17 19 22 22 23 27 17 20 19 20 19 17 14 10 12 12 13 14 14 15 14 13 13 11 10 10 10 10 8 10 7 7 5 6
14 11 9 10 9 7 10 12 13 13 18 20 21 25 28 26 19 17 18 14 15 12 10 11 12 14 16 17 17 15 15 15 14 13 11 11 10 8 9 8 8 6 5
12 10 9 8 8 9 11 10 10 13 14 14 17 21 23 26 19 17 16 11 11 12 11 12 14 15 14 14 14 16 16 15 14 13 13 11 10 9 9 9 8 8 6
10 8 11 8 9 11 10 10 10 11 12 14 15 13 18 17 17 17 16 11 10 12 12 12 13 13 13 13 13 13 15 16 14 12 13 13 12 9 9 9 8 7 6
9 12 9 7 8 10 10 10 10 11 11 13 13 14 15 14 12 12 12 12 10 10 10 11 11 12 13 13 13 12 14 14 16 14 13 14 13 11 10 9 9 9 7
11 11 12 9 9 10 9 10 10 10 10 11 13 17 20 13 11 11 11 11 10 10 10 10 10 11 11 12 12 13 12 12 13 14 13 14 13 13 11 10 9 9 8
10 8 10 11 10 10 11 10 10 11 11 11 11 12 19 12 10 10 10 9 9 10 11 9 9 10 11 11 12 12 12 13 12 13 13 13 13 12 11 11 10 9 10
11 10 10 11 12 13 12 11 11 12 12 11 11 10 11 11 10 9 9 10 9 10 11 11 10 10 11 11 12 12 13 14 15 14 12 13 12 11 11 11 12 11 10
10 12 11 10 11 13 12 12 13 12 13 13 12 12 11 10 9 10 11 11 9 9 10 11 11 10 10 11 11 12 12 13 13 13 11 11 11 11 10 9 8 11 10
12 11 8 9 11 13 13 13 13 12 13 14 13 12 11 11 9 9 9 9 10 8 9 10 10 10 10 10 11 11 12 12 12 12 11 9 10 10 9 9 9 8 10
12 11 10 10 11 10 13 13 12 12 12 13 13 13 12 10 9 9 9 9 9 10 10 10 10 10 10 10 11 11 12 12 12 11 11 10 10 10 9 9 9 9 9
Wind_Direction
311 313 315 314 315 318 318 315 309 313 313 310 307 301 297 295 302 312 306 296 289 293 293 295 290 290 286 281 276 274 268 263 268 278 274 271 268 262 263 262 263 261 261
315 314 313 312 312 314 308 311 314 316 312 312 301 302 307 312 316 312 314 309 304 296 291 290 290 291 288 283 278 275 272 271 275 277 275 276 271 269 268 266 263 261 262
312 312 311 311 310 309 305 312 315 314 314 312 312 315 315 316 309 304 301 298 296 290 292 291 290 289 286 282 279 277 276 274 275 277 277 274 273 271 271 267 265 262 258
312 312 312 311 312 311 306 312 313 313 312 310 308 306 306 308 306 302 293 302 297 293 290 287 285 283 283 283 278 278 277 277 275 274 274 273 271 271 268 268 269 266 263
312 312 312 309 306 304 309 312 314 312 311 310 309 308 308 308 304 291 296 306 304 297 291 288 285 283 277 277 279 278 275 275 273 273 273 273 272 271 267 270 271 270 266
312 310 310 302 300 305 308 313 313 312 312 311 311 309 309 308 302 299 299 302 304 300 295 292 288 285 285 286 284 285 282 273 271 269 270 274 274 275 276 277 275 273 272
308 304 306 297 296 302 306 312 312 313 313 312 311 309 309 309 303 298 296 301 303 301 297 293 291 287 287 286 284 275 283 281 274 269 267 266 269 268 269 269 266 268 266
308 307 297 289 290 298 305 309 313 314 313 313 312 311 309 308 304 298 300 308 304 300 297 293 290 288 286 282 286 280 279 277 272 271 267 269 270 270 267 267 269 271 268
306 307 303 289 284 294 304 309 313 313 314 313 311 310 308 301 300 301 310 314 307 301 299 295 291 289 288 289 285 283 282 279 277 276 273 269 268 268 265 268 266 272 271
306 301 295 283 284 288 300 309 312 313 313 310 303 310 310 314 310 314 316 317 310 311 307 303 297 296 290 284 282 285 282 283 286 281 276 277 278 273 260 258 256 257 261
308 300 293 279 284 295 300 309 312 314 315 307 312 313 315 311 313 313 307 314 314 310 308 305 303 295 280 289 288 285 285 282 280 281 282 282 278 270 262 262 260 257 257
315 302 284 300 294 294 302 309 312 315 314 310 311 316 316 318 314 313 311 315 313 312 308 306 300 295 299 299 298 295 285 284 289 296 294 290 288 284 275 265 261 262 261
309 315 302 295 285 296 305 311 315 313 312 313 318 318 319 319 318 317 312 320 319 317 314 301 310 305 313 321 319 318 320 318 298 296 296 295 293 290 286 288 283 267 260
316 314 311 303 300 303 306 311 312 312 311 319 319 317 317 320 324 318 322 323 325 322 320 331 324 324 328 338 333 324 318 309 319 318 309 312 316 304 300 300 296 279 268
316 314 310 304 304 302 308 312 310 307 310 320 323 321 321 322 318 322 324 324 327 328 343 339 335 344 353 355 352 353 350 340 336 335 337 335 328 326 328 301 309 285 274
317 320 306 304 296 303 309 310 313 313 318 328 330 331 331 322 321 326 328 332 335 343 358 346 353 357 0 360 0 1 1 355 346 348 345 341 342 349 351 334 339 320 301
315 307 310 309 302 302 307 313 318 320 327 328 328 330 332 335 331 332 336 348 345 351 359 357 356 359 4 4 358 360 359 356 1 356 347 347 347 3 358 359 1 332 317
315 315 311 296 287 293 305 311 316 321 327 326 325 325 326 332 341 342 343 2 348 351 356 357 356 0 358 358 355 357 2 359 3 5 357 356 0 13 360 7 9 357 359
312 294 288 282 295 310 316 311 317 322 323 325 327 326 319 336 342 344 346 352 353 351 351 356 357 353 354 355 358 1 4 356 2 11 8 6 12 11 3 6 9 6 12
294 296 298 286 301 307 305 305 314 319 322 322 325 321 330 343 343 341 345 349 353 352 352 350 350 351 351 355 358 2 5 1 1 7 17 16 12 13 8 3 5 7 3
291 285 287 289 286 295 304 307 304 310 317 321 320 313 328 355 340 339 343 342 348 351 350 353 351 352 351 357 357 359 4 3 2 2 13 18 14 13 15 7 9 4 353
289 275 278 278 286 296 298 302 301 308 312 315 315 318 328 345 330 334 334 336 343 353 356 0 358 359 357 3 1 3 1 359 1 2 11 18 8 5 14 8 10 12 1
284 285 275 275 280 293 305 303 300 301 303 309 311 313 315 314 318 322 325 331 337 345 355 0 3 3 4 7 10 10 9 7 6 4 12 5 2 4 8 5 2 5 4
285 296 285 279 280 291 301 300 299 300 305 310 310 307 309 307 307 309 318 321 330 331 345 351 354 355 357 360 2 2 1 0 2 4 2 1 352 360 4 358 15 356 360
292 299 283 281 282 286 294 302 300 298 304 305 306 304 302 302 301 301 300 308 311 323 328 338 343 346 348 350 353 353 353 353 354 355 355 1 354 355 359 355 7 9 351
282 293 280 278 282 284 287 293 298 297 297 297 298 303 301 298 294 295 296 305 308 312 318 326 330 334 336 340 343 346 347 349 350 350 351 356 355 356 356 355 358 2 357